Find Starlink 3139

NORAD ID: 49425 Int'l Des: 2021-104 Owner: SPXS Country: US Constellation: starlink operational
LEOCIRCULAR

当前视图

正在加载3D地球...

About Starlink 3139

Starlink 3139 (NORAD 49425) is a starlink constellation satellite (v1.5) launched Nov 13, 2021 by SPXS of US. It operates in LEO, CIRCULAR orbit with a mass of 290.00 kg.

关于 Starlink 3139

正在加载描述...

即将过境

Passes for default location (London). Set your location on the main map for personalized predictions.

高度历史

Loading altitude history...

两行轨道根数

1 49425U 21104T 26170.22211725 .00000639 00000-0 58259-4 0 9991
2 49425 53.1604 133.2296 0001211 86.5194 273.5936 15.08830624253966
Epoch: Jun 19, 2026 • Age: 14 hours

当前状态

高度 542.4 km
速度 7.59 km/s
星下点 -8.93°S, 78.05°W
发射日期 Nov 13, 2021
运行时间 4.5 years
类型 internet

技术详情

分类 Payload
质量 290.00 kg
干质量 270.00 kg
总质量 290.00 kg
长度 0.20 m
直径 2.80 m
跨度 9.00 m
形状 Box + pan
制造商 SPXS
平台类型 Starlink
阶段状态 In Orbit
所有者/国家 SPXS/US

Most Searched